GW6393 Weather Reports


time (UTC)temp
C
wind
direction
speed
KPH
gust
KPH
rain 1hr
cm
rain 24hr
cm
rain mn
cm
humidity
%
barometer
mb
20260503004042 18 72 4.8 11.3 0.00 0.00 0.00 33 1016.1
20260503003543 18 64 6.4 9.7 0.00 0.00 0.00 33 1016.1
20260503003154 18 80 3.2 8.0 0.00 0.00 0.00 35 1016.2
20260503002522 18 101 3.2 9.7 0.00 0.00 0.00 34 1016.3
20260503002042 18 80 1.6 9.7 0.00 0.00 0.00 34 1016.3
20260503001724 18 82 6.4 11.3 0.00 0.00 0.00 33 1016.3
20260503001035 18 101 1.6 16.1 0.00 0.00 0.00 33 1016.2
20260503000542 19 88 6.4 16.1 0.00 0.00 0.00 33 1016.3
20260503000157 19 48 8.0 19.3 0.00 0.00 0.00 33 1016.5
20260502235545 19 63 4.8 16.1 0.00 0.00 0.00 33 1016.3
20260502235024 19 86 3.2 14.5 0.00 0.00 0.00 33 1016.3
20260502234710 19 43 6.4 14.5 0.00 0.00 0.00 32 1016.3
20260502234023 19 35 4.8 12.9 0.00 0.00 0.00 33 1016.5
20260502233536 19 9 0.0 9.7 0.00 0.00 0.00 32 1016.6
20260502233206 19 36 1.6 14.5 0.00 0.00 0.00 34 1016.7
20260502232519 18 49 4.8 14.5 0.00 0.00 0.00 34 1016.7
20260502232038 18 63 6.4 11.3 0.00 0.00 0.00 34 1016.7
20260502231659 18 51 4.8 9.7 0.00 0.00 0.00 34 1016.8
20260502231023 18 30 4.8 12.9 0.00 0.00 0.00 34 1016.9
20260502230531 18 36 3.2 14.5 0.00 0.00 0.00 34 1017.0
20260502230230 18 360 4.8 12.9 0.00 0.00 0.00 33 1017.0
20260502225523 18 25 4.8 12.9 0.00 0.00 0.00 33 1017.1
20260502225042 18 20 4.8 11.3 0.00 0.00 0.00 34 1017.1
20260502224630 18 5 0.0 12.9 0.00 0.00 0.00 34 1017.3
20260502224024 18 360 3.2 14.5 0.00 0.00 0.00 33 1017.2
20260502223528 19 19 6.4 14.5 0.00 0.00 0.00 32 1017.4
20260502223215 20 22 6.4 12.9 0.00 0.00 0.00 32 1017.4
20260502222542 19 341 4.8 9.7 0.00 0.00 0.00 32 1017.4
20260502222041 19 167 0.0 6.4 0.00 0.00 0.00 33 1017.5
20260502221707 18 79 1.6 9.7 0.00 0.00 0.00 33 1017.6
20260502221014 18 28 1.6 12.9 0.00 0.00 0.00 34 1017.7
20260502220536 18 17 6.4 16.1 0.00 0.00 0.00 33 1017.8
20260502220217 19 5 6.4 19.3 0.00 0.00 0.00 32 1017.8
20260502215548 18 54 4.8 14.5 0.00 0.00 0.00 32 1017.8
20260502215043 19 69 1.6 12.9 0.00 0.00 0.00 33 1017.8
20260502214714 20 9 6.4 14.5 0.00 0.00 0.00 32 1018.0
20260502214030 19 66 8.0 19.3 0.00 0.00 0.00 32 1018.0
20260502213524 19 32 3.2 14.5 0.00 0.00 0.00 32 1018.1
20260502213215 19 141 1.6 14.5 0.00 0.00 0.00 32 1018.0
20260502212513 18 28 6.4 11.3 0.00 0.00 0.00 35 1018.2
20260502212032 18 97 3.2 11.3 0.00 0.00 0.00 32 1018.3
20260502211710 18 84 6.4 14.5 0.00 0.00 0.00 33 1018.4
20260502211030 18 35 3.2 14.5 0.00 0.00 0.00 33 1018.4
20260502210540 18 42 4.8 14.5 0.00 0.00 0.00 33 1018.5
20260502210224 18 13 6.4 14.5 0.00 0.00 0.00 34 1018.6
20260502205537 19 38 4.8 14.5 0.00 0.00 0.00 33 1018.7
20260502205030 18 59 8.0 11.3 0.00 0.00 0.00 34 1018.6
20260502204655 18 75 6.4 17.7 0.00 0.00 0.00 34 1018.8
20260502204024 18 63 9.7 17.7 0.00 0.00 0.00 34 1018.7
20260502203531 18 56 4.8 14.5 0.00 0.00 0.00 35 1018.7
20260502203246 18 113 4.8 22.5 0.00 0.00 0.00 34 1018.7
20260502202534 18 94 4.8 22.5 0.00 0.00 0.00 33 1018.7
20260502202024 18 40 8.0 19.3 0.00 0.00 0.00 35 1018.8
20260502201629 18 39 4.8 16.1 0.00 0.00 0.00 35 1018.9
20260502201036 18 63 8.0 14.5 0.00 0.00 0.00 35 1018.8
20260502200531 18 38 4.8 20.9 0.00 0.00 0.00 34 1018.9
20260502200130 18 34 6.4 20.9 0.00 0.00 0.00 35 1019.1
20260502195522 18 360 6.4 17.7 0.00 0.00 0.00 37 1019.1
20260502195039 18 25 6.4 16.1 0.00 0.00 0.00 36 1019.1
20260502194628 18 360 9.7 16.1 0.00 0.00 0.00 36 1019.1
20260502194031 18 360 4.8 14.5 0.00 0.00 0.00 34 1019.3
20260502193549 18 352 4.8 19.3 0.00 0.00 0.00 34 1019.3
20260502193124 18 26 8.0 19.3 0.00 0.00 0.00 37 1019.2
20260502192542 18 9 4.8 19.3 0.00 0.00 0.00 36 1019.4
20260502192020 18 11 8.0 20.9 0.00 0.00 0.00 35 1019.5
20260502191623 18 9 12.9 27.4 0.00 0.00 0.00 34 1019.5
20260502191019 19 73 12.9 27.4 0.00 0.00 0.00 34 1019.4
20260502190535 20 69 9.7 20.9 0.00 0.00 0.00 31 1019.5
20260502190131 19 91 9.7 20.9 0.00 0.00 0.00 34 1019.4
20260502185540 18 64 6.4 20.9 0.00 0.00 0.00 33 1019.5
20260502185035 18 104 9.7 20.9 0.00 0.00 0.00 33 1019.3
20260502184626 18 59 12.9 20.9 0.00 0.00 0.00 34 1019.4
20260502184021 18 87 6.4 17.7 0.00 0.00 0.00 34 1019.5
20260502183539 17 80 6.4 17.7 0.00 0.00 0.00 36 1019.6
20260502183137 17 36 8.0 17.7 0.00 0.00 0.00 35 1019.6
20260502182536 17 51 4.8 14.5 0.00 0.00 0.00 39 1019.6
20260502182038 17 36 4.8 16.1 0.00 0.00 0.00 38 1019.8
20260502181626 17 42 4.8 17.7 0.00 0.00 0.00 38 1019.8
20260502181020 17 19 3.2 16.1 0.00 0.00 0.00 38 1019.7
20260502180538 17 344 4.8 16.1 0.00 0.00 0.00 38 1019.8
20260502180137 17 60 8.0 16.1 0.00 0.00 0.00 40 1019.8
20260502170150 17 352 6.4 12.9 0.00 0.00 0.00 38 1019.7
20260502164035 16 15 6.4 14.5 0.00 0.00 0.00 40 1019.9
20260502163541 16 298 4.8 14.5 0.00 0.00 0.00 39 1019.8
20260502163141 16 352 6.4 19.3 0.00 0.00 0.00 40 1019.9
20260502162543 16 5 6.4 19.3 0.00 0.00 0.00 40 1020.0
20260502162042 16 34 3.2 9.7 0.00 0.00 0.00 40 1020.0
20260502161639 16 339 3.2 9.7 0.00 0.00 0.00 42 1020.0
20260502161041 16 32 3.2 8.0 0.00 0.00 0.00 39 1020.0
20260502160530 16 14 3.2 8.0 0.00 0.00 0.00 42 1019.9
20260502160146 16 85 1.6 6.4 0.00 0.00 0.00 41 1019.8
20260502152032 13 31 0.0 8.0 0.00 0.00 0.00 47 1019.8
20260502151643 13 57 3.2 8.0 0.00 0.00 0.00 46 1019.8
20260502151032 13 30 3.2 8.0 0.00 0.00 0.00 47 1019.8
20260502150549 13 40 1.6 6.4 0.00 0.00 0.00 46 1019.7
20260502150148 13 61 3.2 8.0 0.00 0.00 0.00 46 1019.6
20260502130541 7 50 1.6 3.2 0.00 0.00 0.00 60 1019.1
20260502130200 7 51 0.0 3.2 0.00 0.00 0.00 61 1018.8
20260502123519 7 59 4.8 8.0 0.00 0.00 0.00 60 1018.9
20260502123143 7 59 4.8 8.0 0.00 0.00 0.00 60 1018.8
20260502122531 7 60 3.2 6.4 0.00 0.00 0.00 59 1018.6
20260502122036 7 60 4.8 6.4 0.00 0.00 0.00 59 1018.6
20260502121637 7 65 3.2 8.0 0.00 0.00 0.00 59 1018.4
20260502121035 7 55 6.4 8.0 0.00 0.00 0.00 58 1018.3
20260502120525 7 59 3.2 6.4 0.00 0.00 0.00 57 1018.3
20260502120138 7 59 1.6 6.4 0.00 0.00 0.00 57 1018.2
20260502115522 7 45 1.6 8.0 0.00 0.00 0.00 57 1018.4
20260502115040 7 63 4.8 8.0 0.00 0.00 0.00 56 1018.1
20260502114630 7 77 4.8 8.0 0.00 0.00 0.00 56 1018.2
20260502114024 7 73 4.8 8.0 0.00 0.00 0.00 56 1018.1
20260502113540 7 53 3.2 6.4 0.00 0.00 0.00 56 1018.0
20260502113131 7 82 3.2 4.8 0.00 0.00 0.00 56 1017.8
20260502112527 7 82 3.2 4.8 0.00 0.00 0.00 56 1017.8
20260502112019 7 82 3.2 4.8 0.00 0.00 0.00 56 1017.7
20260502111640 7 82 1.6 4.8 0.00 0.00 0.00 56 1017.7
20260502111039 7 83 1.6 8.0 0.00 0.00 0.00 56 1017.5
20260502110524 7 80 3.2 8.0 0.00 0.00 0.00 56 1017.5
20260502110148 7 73 3.2 4.8 0.00 0.00 0.00 55 1017.4
20260502105540 7 73 3.2 6.4 0.00 0.00 0.00 54 1017.4
20260502105041 7 72 3.2 6.4 0.00 0.00 0.00 53 1017.4
20260502104645 7 83 3.2 6.4 0.00 0.00 0.00 53 1017.5
20260502104044 7 86 4.8 6.4 0.00 0.00 0.00 53 1017.4
20260502103542 7 105 0.0 3.2 0.00 0.00 0.00 53 1017.4
20260502103148 7 105 0.0 3.2 0.00 0.00 0.00 52 1017.3
20260502102542 7 105 0.0 3.2 0.00 0.00 0.00 53 1017.2
20260502102037 7 105 0.0 3.2 0.00 0.00 0.00 52 1017.1
20260502101644 8 105 1.6 4.8 0.00 0.00 0.00 52 1017.0
20260502101031 8 105 1.6 6.4 0.00 0.00 0.00 52 1017.0
20260502100535 8 80 3.2 6.4 0.00 0.00 0.00 51 1016.7
20260502100143 8 104 0.0 4.8 0.00 0.00 0.00 50 1016.9
20260502091040 5 26 3.2 12.9 0.00 0.00 0.00 54 1015.9
20260502090520 5 9 6.4 12.9 0.00 0.00 0.00 55 1015.8
20260502090147 5 360 6.4 12.9 0.00 0.00 0.00 55 1015.8
20260502071024 11 17 3.2 4.8 0.00 0.00 0.00 34 1015.2
20260502070534 11 360 1.6 3.2 0.00 0.00 0.00 34 1015.1
20260502070142 11 360 0.0 4.8 0.00 0.00 0.00 34 1015.0
20260502065536 12 360 1.6 4.8 0.00 0.00 0.00 33 1015.0
20260502065042 12 294 1.6 3.2 0.00 0.00 0.00 33 1015.0
20260502064647 12 294 0.0 3.2 0.00 0.00 0.00 32 1015.0
20260502064031 12 294 0.0 3.2 0.00 0.00 0.00 33 1015.0
20260502063543 12 294 1.6 3.2 0.00 0.00 0.00 33 1015.0
20260502063139 11 294 0.0 0.0 0.00 0.00 0.00 34 1015.0
20260502062527 11 294 0.0 1.6 0.00 0.00 0.00 34 1014.9
20260502062045 11 294 0.0 3.2 0.00 0.00 0.00 35 1014.9
20260502061633 10 294 0.0 3.2 0.00 0.00 0.00 36 1014.9
20260502061023 10 294 1.6 3.2 0.00 0.00 0.00 36 1015.0
20260502060536 11 294 1.6 3.2 0.00 0.00 0.00 34 1014.9
20260502060210 12 294 0.0 3.2 0.00 0.00 0.00 33 1014.8
20260502055535 11 294 1.6 3.2 0.00 0.00 0.00 35 1014.8
20260502055035 11 294 0.0 3.2 0.00 0.00 0.00 35 1014.9
20260502054640 11 294 1.6 3.2 0.00 0.00 0.00 33 1014.9
20260502054036 12 296 1.6 3.2 0.00 0.00 0.00 32 1014.9
20260502053542 12 11 0.0 0.0 0.00 0.00 0.00 32 1014.9
20260502053144 12 11 0.0 0.0 0.00 0.00 0.00 31 1014.9
20260502052520 13 11 0.0 1.6 0.00 0.00 0.00 31 1014.9
20260502052025 13 11 0.0 3.2 0.00 0.00 0.00 31 1014.9
20260502051645 13 11 0.0 3.2 0.00 0.00 0.00 30 1014.9
20260502051021 13 11 0.0 3.2 0.00 0.00 0.00 30 1014.9
20260502050541 13 11 0.0 3.2 0.00 0.00 0.00 30 1014.9
20260502050157 13 5 0.0 3.2 0.00 0.00 0.00 31 1014.9
20260502045542 13 300 0.0 0.0 0.00 0.00 0.00 31 1014.8
20260502045034 13 300 0.0 3.2 0.00 0.00 0.00 30 1014.9
20260502044643 13 300 0.0 3.2 0.00 0.00 0.00 30 1014.9
20260502044020 13 300 0.0 3.2 0.00 0.00 0.00 31 1014.9
20260502043523 13 300 0.0 3.2 0.00 0.00 0.00 30 1014.7
20260502043128 13 300 0.0 3.2 0.00 0.00 0.00 30 1014.8
20260502042529 13 300 0.0 3.2 0.00 0.00 0.00 30 1014.8
20260502042045 13 300 0.0 3.2 0.00 0.00 0.00 30 1014.7
20260502041639 13 300 0.0 4.8 0.00 0.00 0.00 29 1014.7
20260502041024 13 300 3.2 4.8 0.00 0.00 0.00 29 1014.7
20260502040530 13 318 0.0 4.8 0.00 0.00 0.00 30 1014.9
20260502040157 13 25 0.0 3.2 0.00 0.00 0.00 29 1014.8
20260502035542 13 25 0.0 3.2 0.00 0.00 0.00 30 1014.7
20260502035030 13 25 0.0 3.2 0.00 0.00 0.00 31 1014.8
20260502034636 13 25 1.6 3.2 0.00 0.00 0.00 32 1014.8
20260502034020 12 25 0.0 3.2 0.00 0.00 0.00 31 1014.7
20260502033544 12 25 0.0 3.2 0.00 0.00 0.00 31 1014.6
20260502033140 13 25 0.0 3.2 0.00 0.00 0.00 30 1014.6
20260502032528 15 25 0.0 0.0 0.00 0.00 0.00 26 1014.6
20260502032025 16 25 0.0 0.0 0.00 0.00 0.00 26 1014.6
20260502031635 16 25 0.0 3.2 0.00 0.00 0.00 26 1014.4
20260502031033 17 25 0.0 3.2 0.00 0.00 0.00 24 1014.3
20260502030542 17 25 0.0 3.2 0.00 0.00 0.00 24 1014.2
20260502030138 17 25 1.6 3.2 0.00 0.00 0.00 25 1014.2
20260502025547 17 25 1.6 3.2 0.00 0.00 0.00 25 1014.0
20260502025038 17 25 1.6 1.6 0.00 0.00 0.00 25 1014.1
20260502024643 17 25 1.6 1.6 0.00 0.00 0.00 25 1014.0
20260502024032 17 25 0.0 1.6 0.00 0.00 0.00 24 1013.9
20260502023537 18 25 0.0 1.6 0.00 0.00 0.00 24 1013.9
20260502023139 18 25 0.0 3.2 0.00 0.00 0.00 24 1014.0
20260502022522 18 25 1.6 3.2 0.00 0.00 0.00 24 1013.8
20260502022041 18 25 0.0 3.2 0.00 0.00 0.00 24 1013.9
20260502021629 18 25 0.0 3.2 0.00 0.00 0.00 23 1013.9
20260502021042 18 25 1.6 3.2 0.00 0.00 0.00 23 1014.0
20260502020542 19 25 0.0 3.2 0.00 0.00 0.00 23 1013.8
20260502020204 20 25 0.0 3.2 0.00 0.00 0.00 22 1013.9
20260502015527 20 25 0.0 3.2 0.00 0.00 0.00 22 1013.9
20260502015034 20 25 0.0 3.2 0.00 0.00 0.00 22 1013.9
20260502014639 21 25 0.0 4.8 0.00 0.00 0.00 21 1013.9
20260502014042 21 23 1.6 6.4 0.00 0.00 0.00 20 1014.0
20260502013528 21 23 1.6 8.0 0.00 0.00 0.00 20 1014.0
20260502013139 22 12 3.2 14.5 0.00 0.00 0.00 19 1013.9
20260502012542 22 28 8.0 16.1 0.00 0.00 0.00 19 1013.9
20260502012022 22 360 9.7 16.1 0.00 0.00 0.00 18 1014.0
20260502011644 22 18 9.7 19.3 0.00 0.00 0.00 18 1014.0
20260502011027 23 321 11.3 19.3 0.00 0.00 0.00 18 1014.0
20260502010528 23 352 12.9 22.5 0.00 0.00 0.00 18 1014.0
20260502010147 23 352 12.9 22.5 0.00 0.00 0.00 18 1014.0
20260502005537 23 9 14.5 20.9 0.00 0.00 0.00 18 1014.0
20260502005043 23 352 12.9 22.5 0.00 0.00 0.00 18 1014.1
20260502004650 23 360 14.5 20.9 0.00 0.00 0.00 18 1014.0